Simultaneous Nadir Overpasses (SNOs) Predictions

Prediction of SNOs between METOP-A and TERRA Satellite Orbit:

Table of predicted SNOs for the next 14.0 days since TLE Epoch: 6/23/2018
Index Date (METOP-A) Time (METOP-A) Lat,Lon (METOP-A) SZA (METOP-A ) Date (TERRA) Time (TERRA) Lat,Lon (TERRA) SZA (TERRA ) Distance(km) Time Diff (sec)
1 06/23/2018 09:58:56 -81.42,-100.54 118.95 06/23/2018 09:59:57 -81.42,-100.41 118.90 2.21 61
2 06/23/2018 10:49:36 81.42, 67.23 61.11 06/23/2018 10:49:23 81.43, 67.32 61.12 1.73 13
3 06/26/2018 05:33:13 -81.42, -34.06 118.90 06/26/2018 05:34:13 -81.42, -33.99 118.86 1.27 60
4 06/26/2018 06:23:53 81.42, 133.69 61.16 06/26/2018 06:23:39 81.42, 133.72 61.16 0.85 14
5 06/29/2018 01:07:30 -81.42, 32.41 118.79 06/29/2018 01:08:29 -81.42, 32.45 118.75 0.67 59
6 06/29/2018 01:58:10 81.42,-159.87 61.26 06/29/2018 01:57:55 81.42,-159.87 61.26 0.50 15
7 07/01/2018 20:41:46 -81.42, 98.88 118.63 07/01/2018 20:42:44 -81.42, 98.89 118.60 0.44 58
8 07/01/2018 21:32:26 81.42, -93.43 61.42 07/01/2018 21:32:10 81.42, -93.45 61.41 0.49 16
9 07/04/2018 16:16:03 -81.42, 165.33 118.42 07/04/2018 16:17:00 -81.42, 165.34 118.38 0.49 57




NCC Satellite Simultaneous Nadir Overpasses (SNOs) Prediction Service
